This is the latest recevied weather packets stored in our database for station/object W8MRL. If no packets are shown the sender has not sent any weather packets the latest 10 day(s).
| Time | Temp. | Humidity | Pressure | Rain* | Wind** | Luminosity | Snow |
|---|---|---|---|---|---|---|---|
| 1777637728 | 8.33° C | 80% | 1016.2 hPa | 0 mm | - | - | - |
| 1777636829 | 7.78° C | 82% | 1016.1 hPa | 0 mm | - | - | - |
| 1777635940 | 7.78° C | 82% | 1016.1 hPa | 0 mm | - | - | - |
| 1777635022 | 7.78° C | 83% | 1016 hPa | 0 mm | - | - | - |
| 1777634128 | 7.22° C | 86% | 1016.1 hPa | 0 mm | - | - | - |
| 1777633217 | 7.22° C | 90% | 1016.1 hPa | 0 mm | - | - | - |
| 1777632317 | 7.22° C | 91% | 1016.1 hPa | 0 mm | - | - | - |
| 1777631414 | 6.67° C | 92% | 1016.2 hPa | 0 mm | - | - | - |
| 1777630514 | 6.67° C | 92% | 1016.2 hPa | 0 mm | - | - | - |
| 1777629611 | 6.67° C | 93% | 1016.3 hPa | 0 mm | - | - | - |
| 1777628722 | 6.67° C | 93% | 1016.3 hPa | 0 mm | - | - | - |
| 1777627808 | 6.67° C | 93% | 1016.7 hPa | 0 mm | - | - | - |
| 1777626910 | 6.67° C | 94% | 1016.8 hPa | 0 mm | - | - | - |
| 1777626006 | 6.11° C | 94% | 1016.8 hPa | 0 mm | - | - | - |
| 1777625106 | 6.11° C | 94% | 1016.8 hPa | 0 mm | - | - | - |
| 1777624206 | 6.11° C | 94% | 1016.9 hPa | 0 mm | - | - | - |
| 1777623304 | 6.11° C | 94% | 1016.8 hPa | 0 mm | - | - | - |
| 1777622401 | 5.56° C | 94% | 1017.1 hPa | 0 mm | - | - | - |
| 1777621573 | 5.56° C | 93% | 1017.3 hPa | 0 mm | - | - | - |
| 1777620660 | 5.56° C | 94% | 1017.3 hPa | 0 mm | - | - | - |
| 1777619764 | 5.56° C | 93% | 1017.6 hPa | 0 mm | - | - | - |
| 1777618856 | 5.56° C | 93% | 1017.6 hPa | 0 mm | - | - | - |
| 1777617954 | 6.11° C | 93% | 1017.8 hPa | 0 mm | - | - | - |
| 1777617054 | 6.11° C | 92% | 1017.8 hPa | 0 mm | - | - | - |
| 1777616153 | 6.11° C | 92% | 1018.2 hPa | 0 mm | - | - | - |
* Rain latest hour (hover to see other rain measurements)
** Current wind speed in m/s (hover to see current wind gust speed)